Estación de San Ignacio

Ultimos registro cada 15 minutos 74
Estación Fecha / Hora Temperatura Humedad Lluvia Velocidad Dirección Radiación Presion
74 San Ignacio 06-05-2026 18:45 12,3 79 0 0,4 90 0 1035,2
73 San Ignacio 06-05-2026 18:30 12,4 78 0 0 84 0 1034,9
72 San Ignacio 06-05-2026 18:15 12,6 77 0 0,4 83 0 1034,6
71 San Ignacio 06-05-2026 18:00 12,9 75 0 0,9 76 0 1034,3
70 San Ignacio 06-05-2026 17:45 13,1 77 0 1,3 79 14 1034,1
69 San Ignacio 06-05-2026 17:30 13,3 77 0 1,8 81 18 1033,8
68 San Ignacio 06-05-2026 17:15 13,4 79 0 1,3 98 39 1033,6
67 San Ignacio 06-05-2026 17:00 13,7 80 0 1,3 106 46 1033,3
66 San Ignacio 06-05-2026 16:45 14 79 0 3,1 127 49 1033,2
65 San Ignacio 06-05-2026 16:30 13,9 80 0 1,3 80 137 1032,9
64 San Ignacio 06-05-2026 16:15 13,8 81 0 0,9 97 60 1032,9
63 San Ignacio 06-05-2026 16:00 13,9 82 0 1,8 94 69 1032,8
62 San Ignacio 06-05-2026 15:30 14,6 80 0 1,3 86 107 1032,4
61 San Ignacio 06-05-2026 15:15 14,6 81 0 0,9 116 153 1032,2
60 San Ignacio 06-05-2026 15:00 14,9 79 0 1,3 88 81 1031,9
59 San Ignacio 06-05-2026 14:45 14,9 81 0 2,7 100 125 1031,2
58 San Ignacio 06-05-2026 14:30 14,8 81 0 2,7 108 144 1030,6
57 San Ignacio 06-05-2026 14:15 14,8 81 0 1,8 103 74 1030,2
56 San Ignacio 06-05-2026 13:45 14,8 84 0 1,8 110 185 1029,8
55 San Ignacio 06-05-2026 13:30 14,8 84 0 1,8 110 185 1029,8
54 San Ignacio 06-05-2026 13:15 14,6 85 0 1,3 113 146 1029,4
53 San Ignacio 06-05-2026 13:00 13,9 87 0 0,4 87 162 1029,1
52 San Ignacio 06-05-2026 12:45 13,2 90 0 0,4 77 109 1028,2
51 San Ignacio 06-05-2026 12:30 13,2 90 0 0,4 77 109 1028,2
50 San Ignacio 06-05-2026 12:15 13 90 0 1,3 84 109 1028
49 San Ignacio 06-05-2026 12:00 13,1 90 0 1,3 88 90 1027,5
48 San Ignacio 06-05-2026 11:45 13,3 91 0 1,3 101 39 1026,6
47 San Ignacio 06-05-2026 11:30 13,3 91 0 1,3 101 39 1026,6
46 San Ignacio 06-05-2026 11:15 13,2 91 0 1,3 192 56 1026,1
45 San Ignacio 06-05-2026 11:00 13,1 91 0 1,8 161 40 1025,6
44 San Ignacio 06-05-2026 10:45 12,9 91 0 1,8 189 51 1025,1
43 San Ignacio 06-05-2026 10:30 12,9 91 0 1,8 189 51 1025,1
42 San Ignacio 06-05-2026 10:15 12,7 91 0 1,8 207 42 1025,1
41 San Ignacio 06-05-2026 10:00 12,7 91 0 1,3 192 11 1025
40 San Ignacio 06-05-2026 09:45 12,7 91 0 1,8 202 9 1024,7
39 San Ignacio 06-05-2026 09:30 12,7 91 0 1,8 202 9 1024,7
38 San Ignacio 06-05-2026 09:15 12,6 91 0 1,8 204 7 1024,7
37 San Ignacio 06-05-2026 09:00 12,6 91 0 1,8 203 11 1024,5
36 San Ignacio 06-05-2026 08:45 12,7 90 0 2,2 198 0 1024,3
35 San Ignacio 06-05-2026 08:30 12,7 90 0 2,2 198 0 1024,3
34 San Ignacio 06-05-2026 08:15 12,7 90 0 1,8 202 0 1024,2
33 San Ignacio 06-05-2026 08:00 12,7 90 0 2,2 198 0 1024,1
32 San Ignacio 06-05-2026 07:45 12,8 90 0,1 3,1 205 0 1023,8
31 San Ignacio 06-05-2026 07:30 12,8 90 0,7 3,1 205 0 1023,8
30 San Ignacio 06-05-2026 07:15 12,7 90 0,6 2,2 203 0 1024,6
29 San Ignacio 06-05-2026 07:00 12,7 90 0,1 1,3 197 0 1024,2
28 San Ignacio 06-05-2026 06:45 12,7 90 0,3 1,3 205 0 1024,2
27 San Ignacio 06-05-2026 06:30 12,7 90 0,8 1,3 205 0 1024,2
26 San Ignacio 06-05-2026 06:15 12,8 90 2,9 2,2 192 0 1024,3
25 San Ignacio 06-05-2026 06:00 12,8 90 1 1,8 200 0 1024,3
24 San Ignacio 06-05-2026 05:45 12,8 90 0,6 3,6 204 0 1023,8
23 San Ignacio 06-05-2026 05:30 12,8 90 1 3,6 204 0 1023,8
22 San Ignacio 06-05-2026 05:15 12,7 90 0,1 1,8 205 0 1023,7
21 San Ignacio 06-05-2026 05:00 12,7 90 0,5 2,2 201 0 1024
20 San Ignacio 06-05-2026 04:45 12,6 90 0,1 2,2 205 0 1024,3
19 San Ignacio 06-05-2026 04:30 12,6 90 0,1 2,2 205 0 1024,3
18 San Ignacio 06-05-2026 04:15 12,6 90 0,6 0,9 196 0 1024,6
17 San Ignacio 06-05-2026 04:00 12,6 90 1,1 1,8 211 0 1024,7
16 San Ignacio 06-05-2026 03:45 12,7 90 1,3 2,2 199 0 1024,8
15 San Ignacio 06-05-2026 03:30 12,7 90 3,9 2,2 199 0 1024,8
14 San Ignacio 06-05-2026 03:15 12,7 90 4,5 2,2 202 0 1024,9
13 San Ignacio 06-05-2026 03:00 12,8 90 1,5 0,9 206 0 1025
12 San Ignacio 06-05-2026 02:45 12,8 90 0,5 1,3 179 0 1025,4
11 San Ignacio 06-05-2026 02:30 12,8 90 2,3 1,3 179 0 1025,4
10 San Ignacio 06-05-2026 02:15 12,9 89 0,1 1,3 186 0 1025,4
9 San Ignacio 06-05-2026 02:00 13,1 89 0 0,9 174 0 1025,6
8 San Ignacio 06-05-2026 01:45 13,6 87 0 1,3 197 0 1024,6
7 San Ignacio 06-05-2026 01:30 13,6 87 0 1,3 197 0 1024,6
6 San Ignacio 06-05-2026 01:15 14,3 84 0 2,2 205 0 1024,3
5 San Ignacio 06-05-2026 01:00 14,4 83 0 1,3 198 0 1024,2
4 San Ignacio 06-05-2026 00:45 14,6 83 0 3,6 212 0 1024
3 San Ignacio 06-05-2026 00:30 14,6 83 0 3,6 212 0 1024
2 San Ignacio 06-05-2026 00:15 14,6 83 0 2,2 207 0 1024,2
1 San Ignacio 06-05-2026 00:00 14,4 83 0 2,7 205 0 1024,9